Year,Month,Day,Hour,Minute,Value (Times are PST for temperature in C)
2021,04,20,00,00,9.20
2021,04,20,00,01,9.30
2021,04,20,00,02,9.40
2021,04,20,00,03,9.40
2021,04,20,00,04,9.30
2021,04,20,00,05,9.30
2021,04,20,00,06,9.30
2021,04,20,00,07,9.20
2021,04,20,00,08,9.20
2021,04,20,00,09,9.10
2021,04,20,00,10,9.20
2021,04,20,00,11,9.20
2021,04,20,00,12,9.20
2021,04,20,00,13,9.20
2021,04,20,00,14,9.20
2021,04,20,00,15,9.30
2021,04,20,00,16,9.30
2021,04,20,00,17,9.30
2021,04,20,00,18,9.30
2021,04,20,00,19,9.40
2021,04,20,00,20,9.50
2021,04,20,00,21,9.50
2021,04,20,00,22,9.50
2021,04,20,00,23,9.50
2021,04,20,00,24,9.40
2021,04,20,00,25,9.40
2021,04,20,00,26,9.40
2021,04,20,00,27,9.40
2021,04,20,00,28,9.40
2021,04,20,00,29,9.40
2021,04,20,00,30,9.40
2021,04,20,00,31,9.40
2021,04,20,00,32,9.40
2021,04,20,00,33,9.40
2021,04,20,00,34,9.30
2021,04,20,00,35,9.30
2021,04,20,00,36,9.30
2021,04,20,00,37,9.30
2021,04,20,00,38,9.30
2021,04,20,00,39,9.40
2021,04,20,00,40,9.40
2021,04,20,00,41,9.50
2021,04,20,00,42,9.70
2021,04,20,00,43,9.80
2021,04,20,00,44,10.00
2021,04,20,00,45,10.10
2021,04,20,00,46,10.20
2021,04,20,00,47,10.30
2021,04,20,00,48,10.40
2021,04,20,00,49,10.50
2021,04,20,00,50,10.50
2021,04,20,00,51,10.60
2021,04,20,00,52,10.70
2021,04,20,00,53,10.70
2021,04,20,00,54,10.80
2021,04,20,00,55,10.80
2021,04,20,00,56,10.80
2021,04,20,00,57,10.90
2021,04,20,00,58,10.90
2021,04,20,00,59,10.90
2021,04,20,01,00,10.90
2021,04,20,01,01,10.90
2021,04,20,01,02,11.00
2021,04,20,01,03,11.00
2021,04,20,01,04,11.00
2021,04,20,01,05,11.00
2021,04,20,01,06,11.00
2021,04,20,01,07,11.00
2021,04,20,01,08,10.90
2021,04,20,01,09,10.90
2021,04,20,01,10,10.90
2021,04,20,01,11,10.80
2021,04,20,01,12,10.80
2021,04,20,01,13,10.80
2021,04,20,01,14,10.80
2021,04,20,01,15,10.80
2021,04,20,01,16,10.80
2021,04,20,01,17,10.70
2021,04,20,01,18,10.70
2021,04,20,01,19,10.70
2021,04,20,01,20,10.60
2021,04,20,01,21,10.60
2021,04,20,01,22,10.50
2021,04,20,01,23,10.40
2021,04,20,01,24,10.40
2021,04,20,01,25,10.30
2021,04,20,01,26,10.30
2021,04,20,01,27,10.20
2021,04,20,01,28,10.20
2021,04,20,01,29,10.20
2021,04,20,01,30,10.10
2021,04,20,01,31,10.10
2021,04,20,01,32,10.10
2021,04,20,01,33,10.10
2021,04,20,01,34,10.10
2021,04,20,01,35,10.10
2021,04,20,01,36,10.10
2021,04,20,01,37,10.20
2021,04,20,01,38,10.20
2021,04,20,01,39,10.30
2021,04,20,01,40,10.30
2021,04,20,01,41,10.30
2021,04,20,01,42,10.40
2021,04,20,01,43,10.50
2021,04,20,01,44,10.60
2021,04,20,01,45,10.70
2021,04,20,01,46,10.70
2021,04,20,01,47,10.80
2021,04,20,01,48,10.80
2021,04,20,01,49,10.80
2021,04,20,01,50,10.90
2021,04,20,01,51,11.00
2021,04,20,01,52,11.10
2021,04,20,01,53,11.10
2021,04,20,01,54,11.20
2021,04,20,01,55,11.20
2021,04,20,01,56,11.30
2021,04,20,01,57,11.30
2021,04,20,01,58,11.30
2021,04,20,01,59,11.40
2021,04,20,02,00,11.40
2021,04,20,02,01,11.50
2021,04,20,02,02,11.50
2021,04,20,02,03,11.50
2021,04,20,02,04,11.60
2021,04,20,02,05,11.70
2021,04,20,02,06,11.70
2021,04,20,02,07,11.80
2021,04,20,02,08,11.80
2021,04,20,02,09,11.80
2021,04,20,02,10,11.80
2021,04,20,02,11,11.80
2021,04,20,02,12,11.80
2021,04,20,02,13,11.80
2021,04,20,02,14,11.80
2021,04,20,02,15,11.60
2021,04,20,02,16,11.50
2021,04,20,02,17,11.40
2021,04,20,02,18,11.30
2021,04,20,02,19,11.10
2021,04,20,02,20,11.00
2021,04,20,02,21,10.90
2021,04,20,02,22,10.80
2021,04,20,02,23,10.70
2021,04,20,02,24,10.70
2021,04,20,02,25,10.70
2021,04,20,02,26,10.60
2021,04,20,02,27,10.60
2021,04,20,02,28,10.50
2021,04,20,02,29,10.50
2021,04,20,02,30,10.50
2021,04,20,02,31,10.60
2021,04,20,02,32,10.60
2021,04,20,02,33,10.60
2021,04,20,02,34,10.60
2021,04,20,02,35,10.50
2021,04,20,02,36,10.50
2021,04,20,02,37,10.40
2021,04,20,02,38,10.40
2021,04,20,02,39,10.30
2021,04,20,02,40,10.30
2021,04,20,02,41,10.20
2021,04,20,02,42,10.20
2021,04,20,02,43,10.10
2021,04,20,02,44,10.10
2021,04,20,02,45,10.00
2021,04,20,02,46,10.00
2021,04,20,02,47,9.90
2021,04,20,02,48,9.90
2021,04,20,02,49,9.90
2021,04,20,02,50,9.90
2021,04,20,02,51,9.80
2021,04,20,02,52,9.80
2021,04,20,02,53,9.80
2021,04,20,02,54,9.80
2021,04,20,02,55,9.80
2021,04,20,02,56,9.70
2021,04,20,02,57,9.70
2021,04,20,02,58,9.70
2021,04,20,02,59,9.70
2021,04,20,03,00,9.70
2021,04,20,03,01,9.60
2021,04,20,03,02,9.60
2021,04,20,03,03,9.60
2021,04,20,03,04,9.60
2021,04,20,03,05,9.60
2021,04,20,03,06,9.60
2021,04,20,03,07,9.50
2021,04,20,03,08,9.50
2021,04,20,03,09,9.50
2021,04,20,03,10,9.50
2021,04,20,03,11,9.40
2021,04,20,03,12,9.40
2021,04,20,03,13,9.50
2021,04,20,03,14,9.50
2021,04,20,03,15,9.50
2021,04,20,03,16,9.50
2021,04,20,03,17,9.50
2021,04,20,03,18,9.50
2021,04,20,03,19,9.50
2021,04,20,03,20,9.50
2021,04,20,03,21,9.50
2021,04,20,03,22,9.60
2021,04,20,03,23,9.60
2021,04,20,03,24,9.60
2021,04,20,03,25,9.50
2021,04,20,03,26,9.50
2021,04,20,03,27,9.50
2021,04,20,03,28,9.50
2021,04,20,03,29,9.50
2021,04,20,03,30,9.50
2021,04,20,03,31,9.50
2021,04,20,03,32,9.50
2021,04,20,03,33,9.50
2021,04,20,03,34,9.50
2021,04,20,03,35,9.50
2021,04,20,03,36,9.60
2021,04,20,03,37,9.60
2021,04,20,03,38,9.60
2021,04,20,03,39,9.60
2021,04,20,03,40,9.60
2021,04,20,03,41,9.60
2021,04,20,03,42,9.50
2021,04,20,03,43,9.50
2021,04,20,03,44,9.40
2021,04,20,03,45,9.40
2021,04,20,03,46,9.40
2021,04,20,03,47,9.40
2021,04,20,03,48,9.40
2021,04,20,03,49,9.40
2021,04,20,03,50,9.40
2021,04,20,03,51,9.40
2021,04,20,03,52,9.40
2021,04,20,03,53,9.30
2021,04,20,03,54,9.30
2021,04,20,03,55,9.30
2021,04,20,03,56,9.30
2021,04,20,03,57,9.40
2021,04,20,03,58,9.40
2021,04,20,03,59,9.60
2021,04,20,04,00,9.70
2021,04,20,04,01,9.80
2021,04,20,04,02,9.80
2021,04,20,04,03,9.90
2021,04,20,04,04,9.90
2021,04,20,04,05,9.90
2021,04,20,04,06,9.90
2021,04,20,04,07,9.80
2021,04,20,04,08,9.80
2021,04,20,04,09,9.70
2021,04,20,04,10,9.60
2021,04,20,04,11,9.50
2021,04,20,04,12,9.40
2021,04,20,04,13,9.30
2021,04,20,04,14,9.20
2021,04,20,04,15,9.20
2021,04,20,04,16,9.10
2021,04,20,04,17,9.00
2021,04,20,04,18,9.00
2021,04,20,04,19,8.90
2021,04,20,04,20,8.90
2021,04,20,04,21,8.90
2021,04,20,04,22,8.90
2021,04,20,04,23,8.90
2021,04,20,04,24,8.90
2021,04,20,04,25,8.90
2021,04,20,04,26,8.90
2021,04,20,04,27,8.80
2021,04,20,04,28,8.90
2021,04,20,04,29,8.90
2021,04,20,04,30,8.90
2021,04,20,04,31,8.90
2021,04,20,04,32,8.90
2021,04,20,04,33,8.90
2021,04,20,04,34,8.90
2021,04,20,04,35,8.90
2021,04,20,04,36,8.90
2021,04,20,04,37,8.80
2021,04,20,04,38,8.80
2021,04,20,04,39,8.80
2021,04,20,04,40,8.80
2021,04,20,04,41,8.70
2021,04,20,04,42,8.70
2021,04,20,04,43,8.70
2021,04,20,04,44,8.70
2021,04,20,04,45,8.70
2021,04,20,04,46,8.60
2021,04,20,04,47,8.60
2021,04,20,04,48,8.60
2021,04,20,04,49,8.60
2021,04,20,04,50,8.60
2021,04,20,04,51,8.60
2021,04,20,04,52,8.60
2021,04,20,04,53,8.60
2021,04,20,04,54,8.60
2021,04,20,04,55,8.60
2021,04,20,04,56,8.60
2021,04,20,04,57,8.60
2021,04,20,04,58,8.60
2021,04,20,04,59,8.60
2021,04,20,05,00,8.60
2021,04,20,05,01,8.70
2021,04,20,05,02,8.70
2021,04,20,05,03,8.60
2021,04,20,05,04,8.60
2021,04,20,05,05,8.70
2021,04,20,05,06,8.70
2021,04,20,05,07,8.70
2021,04,20,05,08,8.60
2021,04,20,05,09,8.60
2021,04,20,05,10,8.60
2021,04,20,05,11,8.60
2021,04,20,05,12,8.60
2021,04,20,05,13,8.50
2021,04,20,05,14,8.50
2021,04,20,05,15,8.50
2021,04,20,05,16,8.50
2021,04,20,05,17,8.50
2021,04,20,05,18,8.50
2021,04,20,05,19,8.50
2021,04,20,05,20,8.60
2021,04,20,05,21,8.60
2021,04,20,05,22,8.60
2021,04,20,05,23,8.70
2021,04,20,05,24,8.70
2021,04,20,05,25,8.70
2021,04,20,05,26,8.80
2021,04,20,05,27,8.80
2021,04,20,05,28,8.70
2021,04,20,05,29,8.70
2021,04,20,05,30,8.60
2021,04,20,05,31,8.60
2021,04,20,05,32,8.50
2021,04,20,05,33,8.50
2021,04,20,05,34,8.40
2021,04,20,05,35,8.40
2021,04,20,05,36,8.40
2021,04,20,05,37,8.40
2021,04,20,05,38,8.40
2021,04,20,05,39,8.40
2021,04,20,05,40,8.50
2021,04,20,05,41,8.40
2021,04,20,05,42,8.40
2021,04,20,05,43,8.40
2021,04,20,05,44,8.40
2021,04,20,05,45,8.40
2021,04,20,05,46,8.40
2021,04,20,05,47,8.40
2021,04,20,05,48,8.40
2021,04,20,05,49,8.40
2021,04,20,05,50,8.40
2021,04,20,05,51,8.40
2021,04,20,05,52,8.50
2021,04,20,05,53,8.50
2021,04,20,05,54,8.50
2021,04,20,05,55,8.50
2021,04,20,05,56,8.50
2021,04,20,05,57,8.50
2021,04,20,05,58,8.50
2021,04,20,05,59,8.50
2021,04,20,06,00,8.60
2021,04,20,06,01,8.50
2021,04,20,06,02,8.50
2021,04,20,06,03,8.50
2021,04,20,06,04,8.60
2021,04,20,06,05,8.60
2021,04,20,06,06,8.60
2021,04,20,06,07,8.60
2021,04,20,06,08,8.60
2021,04,20,06,09,8.60
2021,04,20,06,10,8.60
2021,04,20,06,11,8.60
2021,04,20,06,12,8.50
2021,04,20,06,13,8.50
2021,04,20,06,14,8.50
2021,04,20,06,15,8.50
2021,04,20,06,16,8.40
2021,04,20,06,17,8.40
2021,04,20,06,18,8.40
2021,04,20,06,19,8.40
2021,04,20,06,20,8.40
2021,04,20,06,21,8.40
2021,04,20,06,22,8.40
2021,04,20,06,23,8.40
2021,04,20,06,24,8.40
2021,04,20,06,25,8.40
2021,04,20,06,26,8.40
2021,04,20,06,27,8.40
2021,04,20,06,28,8.40
2021,04,20,06,29,8.40
2021,04,20,06,30,8.40
2021,04,20,06,31,8.50
2021,04,20,06,32,8.60
2021,04,20,06,33,8.60
2021,04,20,06,34,8.60
2021,04,20,06,35,8.60
2021,04,20,06,36,8.70
2021,04,20,06,37,8.80
2021,04,20,06,38,8.80
2021,04,20,06,39,8.90
2021,04,20,06,40,9.00
2021,04,20,06,41,9.10
2021,04,20,06,42,9.20
2021,04,20,06,43,9.30
2021,04,20,06,44,9.30
2021,04,20,06,45,9.40
2021,04,20,06,46,9.50
2021,04,20,06,47,9.50
2021,04,20,06,48,9.50
2021,04,20,06,49,9.50
2021,04,20,06,50,9.50
2021,04,20,06,51,9.60
2021,04,20,06,52,9.50
2021,04,20,06,53,9.60
2021,04,20,06,54,9.70
2021,04,20,06,55,9.80
2021,04,20,06,56,9.90
2021,04,20,06,57,9.90
2021,04,20,06,58,9.80
2021,04,20,06,59,9.80
2021,04,20,07,00,9.80
2021,04,20,07,01,9.90
2021,04,20,07,02,9.90
2021,04,20,07,03,9.80
2021,04,20,07,04,9.80
2021,04,20,07,05,9.80
2021,04,20,07,06,9.80
2021,04,20,07,07,9.80
2021,04,20,07,08,9.90
2021,04,20,07,09,9.90
2021,04,20,07,10,9.90
2021,04,20,07,11,9.90
2021,04,20,07,12,10.00
2021,04,20,07,13,10.00
2021,04,20,07,14,10.00
2021,04,20,07,15,10.10
2021,04,20,07,16,10.20
2021,04,20,07,17,10.30
2021,04,20,07,18,10.40
2021,04,20,07,19,10.40
2021,04,20,07,20,10.60
2021,04,20,07,21,10.60
2021,04,20,07,22,10.60
2021,04,20,07,23,10.70
2021,04,20,07,24,10.80
2021,04,20,07,25,10.90
2021,04,20,07,26,10.90
2021,04,20,07,27,11.00
2021,04,20,07,28,11.10
2021,04,20,07,29,11.10
2021,04,20,07,30,11.20
2021,04,20,07,31,11.30
2021,04,20,07,32,11.40
2021,04,20,07,33,11.50
2021,04,20,07,34,11.60
2021,04,20,07,35,11.70
2021,04,20,07,36,11.80
2021,04,20,07,37,11.80
2021,04,20,07,38,11.90
2021,04,20,07,39,12.00
2021,04,20,07,40,12.10
2021,04,20,07,41,12.10
2021,04,20,07,42,12.20
2021,04,20,07,43,12.30
2021,04,20,07,44,12.40
2021,04,20,07,45,12.40
2021,04,20,07,46,12.60
2021,04,20,07,47,12.60
2021,04,20,07,48,12.70
2021,04,20,07,49,12.80
2021,04,20,07,50,12.80
2021,04,20,07,51,12.90
2021,04,20,07,52,13.00
2021,04,20,07,53,13.00
2021,04,20,07,54,13.10
2021,04,20,07,55,13.20
2021,04,20,07,56,13.20
2021,04,20,07,57,13.30
2021,04,20,07,58,13.30
2021,04,20,07,59,13.40
2021,04,20,08,00,13.50
2021,04,20,08,01,13.50
2021,04,20,08,02,13.60
2021,04,20,08,03,13.60
2021,04,20,08,04,13.60
2021,04,20,08,05,13.60
2021,04,20,08,06,13.60
2021,04,20,08,07,13.60
2021,04,20,08,08,13.60
2021,04,20,08,09,13.70
2021,04,20,08,10,13.70
2021,04,20,08,11,13.80
2021,04,20,08,12,13.80
2021,04,20,08,13,13.80
2021,04,20,08,14,13.80
2021,04,20,08,15,13.80
2021,04,20,08,16,13.80
2021,04,20,08,17,13.80
2021,04,20,08,18,13.80
2021,04,20,08,19,13.70
2021,04,20,08,20,13.80
2021,04,20,08,21,13.80
2021,04,20,08,22,13.70
2021,04,20,08,23,13.80
2021,04,20,08,24,13.80
2021,04,20,08,25,13.80
2021,04,20,08,26,13.80
2021,04,20,08,27,13.80
2021,04,20,08,28,13.70
2021,04,20,08,29,13.70
2021,04,20,08,30,13.70
2021,04,20,08,31,13.70
2021,04,20,08,32,13.60
2021,04,20,08,33,13.60
2021,04,20,08,34,13.60
2021,04,20,08,35,13.60
2021,04,20,08,36,13.70
2021,04,20,08,37,13.60
2021,04,20,08,38,13.60
2021,04,20,08,39,13.60
2021,04,20,08,40,13.60
2021,04,20,08,41,13.60
2021,04,20,08,42,13.50
2021,04,20,08,43,13.50
2021,04,20,08,44,13.50
2021,04,20,08,45,13.60
2021,04,20,08,46,13.60
2021,04,20,08,47,13.70
2021,04,20,08,48,13.70
2021,04,20,08,49,13.70
2021,04,20,08,50,13.70
2021,04,20,08,51,13.80
2021,04,20,08,52,13.80
2021,04,20,08,53,13.80
2021,04,20,08,54,13.70
2021,04,20,08,55,13.70
2021,04,20,08,56,13.80
2021,04,20,08,57,13.70
2021,04,20,08,58,13.70
2021,04,20,08,59,13.70
2021,04,20,09,00,13.80
2021,04,20,09,01,13.80
2021,04,20,09,02,13.80
2021,04,20,09,03,13.80
2021,04,20,09,04,13.70
2021,04,20,09,05,13.80
2021,04,20,09,06,13.80
2021,04,20,09,07,13.80
2021,04,20,09,08,13.80
2021,04,20,09,09,13.70
2021,04,20,09,10,13.60
2021,04,20,09,11,13.60
2021,04,20,09,12,13.60
2021,04,20,09,13,13.60
2021,04,20,09,14,13.60
2021,04,20,09,15,13.60
2021,04,20,09,16,13.50
2021,04,20,09,17,13.40
2021,04,20,09,18,13.30
2021,04,20,09,19,13.20
2021,04,20,09,20,13.30
2021,04,20,09,21,13.40
2021,04,20,09,22,13.50
2021,04,20,09,23,13.50
2021,04,20,09,24,13.60
2021,04,20,09,25,13.50
2021,04,20,09,26,13.50
2021,04,20,09,27,13.50
2021,04,20,09,28,13.50
2021,04,20,09,29,13.60
2021,04,20,09,30,13.70
2021,04,20,09,31,13.70
2021,04,20,09,32,13.60
2021,04,20,09,33,13.50
2021,04,20,09,34,13.50
2021,04,20,09,35,13.40
2021,04,20,09,36,13.40
2021,04,20,09,37,13.30
2021,04,20,09,38,13.30
2021,04,20,09,39,13.30
2021,04,20,09,40,13.40
2021,04,20,09,41,13.40
2021,04,20,09,42,13.40
2021,04,20,09,43,13.40
2021,04,20,09,44,13.40
2021,04,20,09,45,13.40
2021,04,20,09,46,13.40
2021,04,20,09,47,13.40
2021,04,20,09,48,13.40
2021,04,20,09,49,13.40
2021,04,20,09,50,13.40
2021,04,20,09,51,13.30
2021,04,20,09,52,13.30
2021,04,20,09,53,13.30
2021,04,20,09,54,13.30
2021,04,20,09,55,13.30
2021,04,20,09,56,13.40
2021,04,20,09,57,13.40
2021,04,20,09,58,13.40
2021,04,20,09,59,13.50
2021,04,20,10,00,13.50
2021,04,20,10,01,13.50
2021,04,20,10,02,13.40
2021,04,20,10,03,13.40
2021,04,20,10,04,13.50
2021,04,20,10,05,13.60
2021,04,20,10,06,13.70
2021,04,20,10,07,13.70
2021,04,20,10,08,13.70
2021,04,20,10,09,13.60
2021,04,20,10,10,13.60
2021,04,20,10,11,13.70
2021,04,20,10,12,13.80
2021,04,20,10,13,13.80
2021,04,20,10,14,13.70
2021,04,20,10,15,13.80
2021,04,20,10,16,13.80
2021,04,20,10,17,13.70
2021,04,20,10,18,13.70
2021,04,20,10,19,13.60
2021,04,20,10,20,13.50
2021,04,20,10,21,13.50
2021,04,20,10,22,13.60
2021,04,20,10,23,13.70
2021,04,20,10,24,13.70
2021,04,20,10,25,13.70
2021,04,20,10,26,13.80
2021,04,20,10,27,13.90
2021,04,20,10,28,13.90
2021,04,20,10,29,13.80
2021,04,20,10,30,13.70
2021,04,20,10,31,13.60
2021,04,20,10,32,13.50
2021,04,20,10,33,13.40
2021,04,20,10,34,13.50
2021,04,20,10,35,13.50
2021,04,20,10,36,13.50
2021,04,20,10,37,13.60
2021,04,20,10,38,13.60
2021,04,20,10,39,13.60
2021,04,20,10,40,13.60
2021,04,20,10,41,13.60
2021,04,20,10,42,13.60
2021,04,20,10,43,13.60
2021,04,20,10,44,13.70
2021,04,20,10,45,13.70
2021,04,20,10,46,13.60
2021,04,20,10,47,13.70
2021,04,20,10,48,13.70
2021,04,20,10,49,13.80
2021,04,20,10,50,13.90
2021,04,20,10,51,13.90
2021,04,20,10,52,13.90
2021,04,20,10,53,13.90
2021,04,20,10,54,13.90
2021,04,20,10,55,13.90
2021,04,20,10,56,13.80
2021,04,20,10,57,13.80
2021,04,20,10,58,13.80
2021,04,20,10,59,13.80
2021,04,20,11,00,13.80
2021,04,20,11,01,13.90
2021,04,20,11,02,13.90
2021,04,20,11,03,13.90
2021,04,20,11,04,13.90
2021,04,20,11,05,13.90
2021,04,20,11,06,13.90
2021,04,20,11,07,13.90
2021,04,20,11,08,13.90
2021,04,20,11,09,13.90
2021,04,20,11,10,13.90
2021,04,20,11,11,13.90
2021,04,20,11,12,13.90
2021,04,20,11,13,14.00
2021,04,20,11,14,13.90
2021,04,20,11,15,13.90
2021,04,20,11,16,14.00
2021,04,20,11,17,14.00
2021,04,20,11,18,14.00
2021,04,20,11,19,13.90
2021,04,20,11,20,13.80
2021,04,20,11,21,13.80
2021,04,20,11,22,13.70
2021,04,20,11,23,13.70
2021,04,20,11,24,13.70
2021,04,20,11,25,13.70
2021,04,20,11,26,13.70
2021,04,20,11,27,13.70
2021,04,20,11,28,13.70
2021,04,20,11,29,13.60
2021,04,20,11,30,13.60
2021,04,20,11,31,13.60
2021,04,20,11,32,13.60
2021,04,20,11,33,13.60
2021,04,20,11,34,13.60
2021,04,20,11,35,13.70
2021,04,20,11,36,13.70
2021,04,20,11,37,13.60
2021,04,20,11,38,13.60
2021,04,20,11,39,13.60
2021,04,20,11,40,13.70
2021,04,20,11,41,13.80
2021,04,20,11,42,13.80
2021,04,20,11,43,13.80
2021,04,20,11,44,13.80
2021,04,20,11,45,13.80
2021,04,20,11,46,13.90
2021,04,20,11,47,13.80
2021,04,20,11,48,13.90
2021,04,20,11,49,13.90
2021,04,20,11,50,13.90
2021,04,20,11,51,13.90
2021,04,20,11,52,13.80
2021,04,20,11,53,13.90
2021,04,20,11,54,13.90
2021,04,20,11,55,14.00
2021,04,20,11,56,14.00
2021,04,20,11,57,13.90
2021,04,20,11,58,13.90
2021,04,20,11,59,13.90
2021,04,20,12,00,13.90
2021,04,20,12,01,14.00
2021,04,20,12,02,14.10
2021,04,20,12,03,14.20
2021,04,20,12,04,14.30
2021,04,20,12,05,14.20
2021,04,20,12,06,14.20
2021,04,20,12,07,14.20
2021,04,20,12,08,14.10
2021,04,20,12,09,14.20
2021,04,20,12,10,14.30
2021,04,20,12,11,14.30
2021,04,20,12,12,14.30
2021,04,20,12,13,14.40
2021,04,20,12,14,14.40
2021,04,20,12,15,14.30
2021,04,20,12,16,14.20
2021,04,20,12,17,14.20
2021,04,20,12,18,14.20
2021,04,20,12,19,14.20
2021,04,20,12,20,14.20
2021,04,20,12,21,14.20
2021,04,20,12,22,14.20
2021,04,20,12,23,14.20
2021,04,20,12,24,14.30
2021,04,20,12,25,14.40
2021,04,20,12,26,14.50
2021,04,20,12,27,14.60
2021,04,20,12,28,14.60
2021,04,20,12,29,14.50
2021,04,20,12,30,14.50
2021,04,20,12,31,14.60
2021,04,20,12,32,14.60
2021,04,20,12,33,14.50
2021,04,20,12,34,14.50
2021,04,20,12,35,14.40
2021,04,20,12,36,14.50
2021,04,20,12,37,14.50
2021,04,20,12,38,14.40
2021,04,20,12,39,14.40
2021,04,20,12,40,14.30
2021,04,20,12,41,14.40
2021,04,20,12,42,14.40
2021,04,20,12,43,14.50
2021,04,20,12,44,14.40
2021,04,20,12,45,14.30
2021,04,20,12,46,14.30
2021,04,20,12,47,14.20
2021,04,20,12,48,14.20
2021,04,20,12,49,14.20
2021,04,20,12,50,14.20
2021,04,20,12,51,14.30
2021,04,20,12,52,14.30
2021,04,20,12,53,14.30
2021,04,20,12,54,14.30
2021,04,20,12,55,14.30
2021,04,20,12,56,14.30
2021,04,20,12,57,14.40
2021,04,20,12,58,14.50
2021,04,20,12,59,14.50
2021,04,20,13,00,14.50
2021,04,20,13,01,14.50
2021,04,20,13,02,14.50
2021,04,20,13,03,14.60
2021,04,20,13,04,14.60
2021,04,20,13,05,14.70
2021,04,20,13,06,14.70
2021,04,20,13,07,14.70
2021,04,20,13,08,14.70
2021,04,20,13,09,14.70
2021,04,20,13,10,14.70
2021,04,20,13,11,14.70
2021,04,20,13,12,14.80
2021,04,20,13,13,14.80
2021,04,20,13,14,14.80
2021,04,20,13,15,14.70
2021,04,20,13,16,14.80
2021,04,20,13,17,14.80
2021,04,20,13,18,15.00
2021,04,20,13,19,14.90
2021,04,20,13,20,14.90
2021,04,20,13,21,14.80
2021,04,20,13,22,14.80
2021,04,20,13,23,14.70
2021,04,20,13,24,14.60
2021,04,20,13,25,14.60
2021,04,20,13,26,14.50
2021,04,20,13,27,14.30
2021,04,20,13,28,14.40
2021,04,20,13,29,14.40
2021,04,20,13,30,14.50
2021,04,20,13,31,14.50
2021,04,20,13,32,14.60
2021,04,20,13,33,14.70
2021,04,20,13,34,14.70
2021,04,20,13,35,14.70
2021,04,20,13,36,14.70
2021,04,20,13,37,14.80
2021,04,20,13,38,14.80
2021,04,20,13,39,14.90
2021,04,20,13,40,15.00
2021,04,20,13,41,15.00
2021,04,20,13,42,15.00
2021,04,20,13,43,15.10
2021,04,20,13,44,15.30
2021,04,20,13,45,15.40
2021,04,20,13,46,15.40
2021,04,20,13,47,15.40
2021,04,20,13,48,15.50
2021,04,20,13,49,15.60
2021,04,20,13,50,15.60
2021,04,20,13,51,15.60
2021,04,20,13,52,15.70
2021,04,20,13,53,15.70
2021,04,20,13,54,15.70
2021,04,20,13,55,15.70
2021,04,20,13,56,15.70
2021,04,20,13,57,15.80
2021,04,20,13,58,15.90
2021,04,20,13,59,15.90
2021,04,20,14,00,15.90
2021,04,20,14,01,15.90
2021,04,20,14,02,15.90
2021,04,20,14,03,16.00
2021,04,20,14,04,16.00
2021,04,20,14,05,15.90
2021,04,20,14,06,16.00
2021,04,20,14,07,16.00
2021,04,20,14,08,16.00
2021,04,20,14,09,16.00
2021,04,20,14,10,16.00
2021,04,20,14,11,16.00
2021,04,20,14,12,16.00
2021,04,20,14,13,16.10
2021,04,20,14,14,16.00
2021,04,20,14,15,16.00
2021,04,20,14,16,16.00
2021,04,20,14,17,16.00
2021,04,20,14,18,16.00
2021,04,20,14,19,16.00
2021,04,20,14,20,16.00
2021,04,20,14,21,16.00
2021,04,20,14,22,16.00
2021,04,20,14,23,16.10
2021,04,20,14,24,16.10
2021,04,20,14,25,16.20
2021,04,20,14,26,16.20
2021,04,20,14,27,16.20
2021,04,20,14,28,16.40
2021,04,20,14,29,16.40
2021,04,20,14,30,16.50
2021,04,20,14,31,16.50
2021,04,20,14,32,16.60
2021,04,20,14,33,16.60
2021,04,20,14,34,16.70
2021,04,20,14,35,16.60
2021,04,20,14,36,16.60
2021,04,20,14,37,16.70
2021,04,20,14,38,16.60
2021,04,20,14,39,16.60
2021,04,20,14,40,16.60
2021,04,20,14,41,16.60
2021,04,20,14,42,16.50
2021,04,20,14,43,16.50
2021,04,20,14,44,16.50
2021,04,20,14,45,16.40
2021,04,20,14,46,16.40
2021,04,20,14,47,16.40
2021,04,20,14,48,16.40
2021,04,20,14,49,16.40
2021,04,20,14,50,16.40
2021,04,20,14,51,16.40
2021,04,20,14,52,16.50
2021,04,20,14,53,16.50
2021,04,20,14,54,16.60
2021,04,20,14,55,16.70
2021,04,20,14,56,16.70
2021,04,20,14,57,16.70
2021,04,20,14,58,16.70
2021,04,20,14,59,16.80
2021,04,20,15,00,16.80
2021,04,20,15,01,16.80
2021,04,20,15,02,16.90
2021,04,20,15,03,16.90
2021,04,20,15,04,17.00
2021,04,20,15,05,17.00
2021,04,20,15,06,17.00
2021,04,20,15,07,17.00
2021,04,20,15,08,17.00
2021,04,20,15,09,17.10
2021,04,20,15,10,17.10
2021,04,20,15,11,17.20
2021,04,20,15,12,17.20
2021,04,20,15,13,17.30
2021,04,20,15,14,17.40
2021,04,20,15,15,17.40
2021,04,20,15,16,17.50
2021,04,20,15,17,17.40
2021,04,20,15,18,17.50
2021,04,20,15,19,17.50
2021,04,20,15,20,17.40
2021,04,20,15,21,17.40
2021,04,20,15,22,17.50
2021,04,20,15,23,17.50
2021,04,20,15,24,17.50
2021,04,20,15,25,17.50
2021,04,20,15,26,17.50
2021,04,20,15,27,17.50
2021,04,20,15,28,17.60
2021,04,20,15,29,17.60
2021,04,20,15,30,17.70
2021,04,20,15,31,17.80
2021,04,20,15,32,17.80
2021,04,20,15,33,18.00
2021,04,20,15,34,18.10
2021,04,20,15,35,18.10
2021,04,20,15,36,18.10
2021,04,20,15,37,18.10
2021,04,20,15,38,18.10
2021,04,20,15,39,18.20
2021,04,20,15,40,18.20
2021,04,20,15,41,18.20
2021,04,20,15,42,18.20
2021,04,20,15,43,18.30
2021,04,20,15,44,18.30
2021,04,20,15,45,18.40
2021,04,20,15,46,18.40
2021,04,20,15,47,18.50
2021,04,20,15,48,18.60
2021,04,20,15,49,18.60
2021,04,20,15,50,18.70
2021,04,20,15,51,18.70
2021,04,20,15,52,18.60
2021,04,20,15,53,18.60
2021,04,20,15,54,18.60
2021,04,20,15,55,18.60
2021,04,20,15,56,18.60
2021,04,20,15,57,18.70
2021,04,20,15,58,18.70
2021,04,20,15,59,18.80
2021,04,20,16,00,18.90
2021,04,20,16,01,19.10
2021,04,20,16,02,19.10
2021,04,20,16,03,19.10
2021,04,20,16,04,19.00
2021,04,20,16,05,19.00
2021,04,20,16,06,19.00
2021,04,20,16,07,19.10
2021,04,20,16,08,19.10
2021,04,20,16,09,19.00
2021,04,20,16,10,18.90
2021,04,20,16,11,18.90
2021,04,20,16,12,18.80
2021,04,20,16,13,18.80
2021,04,20,16,14,18.80
2021,04,20,16,15,18.80
2021,04,20,16,16,18.70
2021,04,20,16,17,18.70
2021,04,20,16,18,18.70
2021,04,20,16,19,18.60
2021,04,20,16,20,18.50
2021,04,20,16,21,18.40
2021,04,20,16,22,18.40
2021,04,20,16,23,18.50
2021,04,20,16,24,18.50
2021,04,20,16,25,18.50
2021,04,20,16,26,18.50
2021,04,20,16,27,18.50
2021,04,20,16,28,18.60
2021,04,20,16,29,18.60
2021,04,20,16,30,18.60
2021,04,20,16,31,18.60
2021,04,20,16,32,18.50
2021,04,20,16,33,18.50
2021,04,20,16,34,18.40
2021,04,20,16,35,18.40
2021,04,20,16,36,18.40
2021,04,20,16,37,18.40
2021,04,20,16,38,18.40
2021,04,20,16,39,18.30
2021,04,20,16,40,18.30
2021,04,20,16,41,18.40
2021,04,20,16,42,18.50
2021,04,20,16,43,18.60
2021,04,20,16,44,18.50
2021,04,20,16,45,18.50
2021,04,20,16,46,18.60
2021,04,20,16,47,18.60
2021,04,20,16,48,18.60
2021,04,20,16,49,18.60
2021,04,20,16,50,18.60
2021,04,20,16,51,18.60
2021,04,20,16,52,18.70
2021,04,20,16,53,18.70
2021,04,20,16,54,18.70
2021,04,20,16,55,18.70
2021,04,20,16,56,18.70
2021,04,20,16,57,18.70
2021,04,20,16,58,18.70
2021,04,20,16,59,18.70
2021,04,20,17,00,18.70
2021,04,20,17,01,18.70
2021,04,20,17,02,18.70
2021,04,20,17,03,18.70
2021,04,20,17,04,18.80
2021,04,20,17,05,18.80
2021,04,20,17,06,18.90
2021,04,20,17,07,18.90
2021,04,20,17,08,18.90
2021,04,20,17,09,18.90
2021,04,20,17,10,19.00
2021,04,20,17,11,19.00
2021,04,20,17,12,19.00
2021,04,20,17,13,19.00
2021,04,20,17,14,19.10
2021,04,20,17,15,19.10
2021,04,20,17,16,19.10
2021,04,20,17,17,19.10
2021,04,20,17,18,19.10
2021,04,20,17,19,19.00
2021,04,20,17,20,19.00
2021,04,20,17,21,19.00
2021,04,20,17,22,19.00
2021,04,20,17,23,18.90
2021,04,20,17,24,19.00
2021,04,20,17,25,19.00
2021,04,20,17,26,19.00
2021,04,20,17,27,19.00
2021,04,20,17,28,19.00
2021,04,20,17,29,18.90
2021,04,20,17,30,19.00
2021,04,20,17,31,19.00
2021,04,20,17,32,18.90